Simultaneous Nadir Overpasses (SNOs) Predictions

Prediction of SNOs between GOES-14 and NOAA-20 Satellite Orbit:

Table of predicted SNOs for the next 14.0 days since TLE Epoch: 3/26/2022
Index Date Time (GOES-14) GOES-14 Lat,Lon NOAA-20 Lat,Lon Distance(km) Time Diff (sec)
1 03/27/2022 08:30:26 0.12,-104.53 0.59,-106.53 228.84 80
2 03/28/2022 08:14:23 0.12,-104.53 -0.44,-102.00 288.19 80
3 03/29/2022 20:36:20 -0.12,-104.47 -0.75,-107.31 323.79 80
4 03/30/2022 20:14:57 -0.12,-104.46 0.28,-102.78 191.77 80
5 04/01/2022 08:36:46 0.12,-104.52 0.88,-108.06 402.27 80
6 04/02/2022 08:20:41 0.12,-104.53 -0.09,-103.52 115.24 80
7 04/03/2022 20:42:39 -0.11,-104.50 -1.10,-108.82 493.19 80
8 04/04/2022 20:21:15 -0.12,-104.49 -0.06,-104.30 22.49 80
9 04/07/2022 08:24:20 0.12,-104.53 0.24,-105.03 57.32 80
10 04/08/2022 08:08:17 0.12,-104.54 -0.80,-100.51 460.10 80
